Location: St Paul
(33.4390°N, 83.7350°W)
Time: 14:34:31
(UTC-04:00)

Cosmos 2341 Rocket - Pass Details

Date: 06 October 2017
Orbit: 969 x 1004 km, 82.9° (Epoch: 18 October)

Event Time Altitude Azimuth Distance (km) Brightness Sun altitude
Rises 20:15:43 0° 190° (S) 3,645 7.1 -14.0°
Reaches altitude 10° 20:18:13 10° 192° (SSW) 2,702 6.4 -14.6°
Maximum altitude 20:24:23 73° 277° (W) 1,016 4.2 -15.9°
Drops below altitude 10° 20:30:38 10° 2° (N) 2,733 6.4 -17.2°
Sets 20:33:11 0° 4° (N) 3,688 7.0 -17.7°
